Location: ČR
(50.0000°N, 15.0000°E)
Time: 23:49:47
(UTC+01:00)

BlueWalker 3 - Pass Details

Date: 22 January 2026
Orbit: 450 x 461 km, 53.2° (Epoch: 14 February)

Event Time Altitude Azimuth Distance (km) Brightness Sun altitude
Rises 17:46:48 0° 198° (SSW) 2,444 6.0 -11.0°
Reaches altitude 10° 17:49:26 10° 178° (S) 1,576 4.6 -11.4°
Maximum altitude 17:51:48 17° 136° (SE) 1,211 3.6 -11.8°
Enters shadow 17:53:08 14° 109° (ESE) 1,338 3.6 -12.0°
